I4GOS-3 Weather Reports


Display with metric or nautical units.
time (UTC)temp
F
wind
direction
speed
MPH
gust
MPH
rain 1hr
in
rain 24hr
in
rain mn
in
humidity
%
barometer
mb
20260507194601 66 89 0.0 0.0 0.00 0.00 0.00 71 1014.1
20260507194059 66 102 0.0 0.0 0.00 0.00 0.00 71 1014.1
20260507193558 66 72 0.0 0.0 0.00 0.00 0.00 70 1014.0
20260507192558 66 101 0.0 0.0 0.00 0.00 0.00 70 1013.9
20260507192137 66 102 0.0 0.0 0.00 0.00 0.00 70 1013.9
20260507192056 66 102 0.0 0.0 0.00 0.00 0.00 70 1013.9
20260507191556 66 102 0.0 0.0 0.00 0.00 0.00 70 1013.9
20260507191155 66 102 0.0 0.0 0.00 0.00 0.00 70 1013.9
20260507191056 66 102 0.0 0.0 0.00 0.00 0.00 70 1013.9
20260507190702 66 102 0.0 0.0 0.00 0.00 0.00 70 1013.8
20260507190556 66 102 0.0 0.0 0.00 0.00 0.00 70 1013.8
20260507190055 66 113 0.0 0.0 0.00 0.00 0.00 69 1013.7
20260507185554 66 105 0.0 0.0 0.00 0.00 0.00 69 1013.8
20260507185054 66 103 0.0 0.0 0.00 0.00 0.00 69 1013.6
20260507184554 66 111 1.0 0.0 0.00 0.00 0.00 69 1013.6
20260507184054 66 112 2.0 0.0 0.00 0.00 0.00 69 1013.6
20260507183553 66 106 0.0 0.0 0.00 0.00 0.00 69 1013.5
20260507183053 67 106 0.0 0.0 0.00 0.00 0.00 69 1013.6
20260507182552 67 106 0.0 0.0 0.00 0.00 0.00 69 1013.6
20260507182052 67 118 0.0 0.0 0.00 0.00 0.00 69 1013.5
20260507181552 67 106 3.0 0.0 0.00 0.00 0.00 69 1013.4
20260507181053 67 102 0.0 0.0 0.00 0.00 0.00 69 1013.3
20260507180648 67 114 7.0 0.0 0.00 0.00 0.00 70 1013.2
20260507180551 67 114 7.0 0.0 0.00 0.00 0.00 70 1013.2
20260507180404 67 122 10.0 0.0 0.00 0.00 0.00 70 1013.2
20260507180129 67 122 10.0 0.0 0.00 0.00 0.00 70 1013.2
20260507180051 67 122 10.0 0.0 0.00 0.00 0.00 70 1013.2
20260507175550 67 96 9.0 0.0 0.00 0.00 0.00 71 1013.1
20260507175147 67 110 7.0 0.0 0.00 0.00 0.00 71 1013.1
20260507175050 67 110 7.0 0.0 0.00 0.00 0.00 71 1013.1
20260507174550 67 104 4.0 0.0 0.00 0.00 0.00 71 1013.0
20260507174050 67 131 7.0 0.0 0.00 0.00 0.00 72 1012.8
20260507173550 67 113 4.0 0.0 0.00 0.00 0.00 72 1012.8
20260507173049 67 85 13.0 0.0 0.00 0.00 0.00 72 1012.8
20260507172549 67 110 10.0 0.0 0.00 0.00 0.00 73 1012.9
20260507172049 67 70 9.0 0.0 0.00 0.00 0.00 74 1012.9
20260507171549 67 110 5.0 0.0 0.00 0.00 0.00 74 1012.9
20260507171120 67 123 9.0 0.0 0.00 0.00 0.00 74 1012.9
20260507171048 67 123 9.0 0.0 0.00 0.00 0.00 74 1012.9
20260507170548 67 64 9.0 0.0 0.00 0.00 0.00 74 1012.9
20260507170048 67 106 11.0 0.0 0.00 0.00 0.00 73 1012.9
20260507165548 68 102 12.0 0.0 0.00 0.00 0.00 72 1012.9
20260507164547 68 96 3.0 0.0 0.00 0.00 0.00 70 1012.9
20260507164047 68 75 10.0 0.0 0.00 0.00 0.00 69 1012.9
20260507163547 69 67 10.0 0.0 0.00 0.00 0.00 67 1012.8
20260507163047 69 95 7.0 0.0 0.00 0.00 0.00 64 1012.8
20260507162546 69 77 3.0 0.0 0.00 0.00 0.00 62 1012.9
20260507162046 69 56 4.0 0.0 0.00 0.00 0.00 59 1012.9
20260507161546 69 75 4.0 0.0 0.00 0.00 0.00 57 1012.9
20260507161046 69 46 7.0 0.0 0.00 0.00 0.00 59 1012.9
20260507160545 68 108 1.0 0.0 0.00 0.00 0.00 59 1013.0
20260507160045 68 42 9.0 0.0 0.00 0.00 0.00 58 1013.0
20260507155545 68 106 7.0 0.0 0.00 0.00 0.00 59 1013.1
20260507155045 68 89 7.0 0.0 0.00 0.00 0.00 60 1013.1
20260507154545 68 46 10.0 0.0 0.00 0.00 0.00 60 1013.1
20260507154044 68 36 5.0 0.0 0.00 0.00 0.00 59 1013.1
20260507153544 68 56 8.0 0.0 0.00 0.00 0.00 56 1013.1
20260507153044 69 34 8.0 0.0 0.00 0.00 0.00 55 1013.1
20260507152544 69 38 10.0 0.0 0.00 0.00 0.00 56 1013.2
20260507152043 69 108 5.0 0.0 0.00 0.00 0.00 58 1013.1
20260507151543 69 61 2.0 0.0 0.00 0.00 0.00 57 1013.1
20260507151043 69 70 10.0 0.0 0.00 0.00 0.00 57 1013.1
20260507150543 68 31 7.0 0.0 0.00 0.00 0.00 56 1013.1
20260507150128 67 62 5.0 0.0 0.00 0.00 0.00 55 1013.1
20260507150043 67 62 5.0 0.0 0.00 0.00 0.00 55 1013.1
20260507145542 68 43 7.0 0.0 0.00 0.00 0.00 62 1013.1
20260507145042 67 16 9.0 0.0 0.00 0.00 0.00 61 1013.1
20260507144542 67 87 2.0 0.0 0.00 0.00 0.00 63 1013.2
20260507144041 68 46 9.0 0.0 0.00 0.00 0.00 62 1013.2
20260507143541 69 34 8.0 0.0 0.00 0.00 0.00 62 1013.2
20260507143041 68 51 3.0 0.0 0.00 0.00 0.00 61 1013.2
20260507142541 68 35 8.0 0.0 0.00 0.00 0.00 61 1013.2
20260507142041 68 42 0.0 0.0 0.00 0.00 0.00 60 1013.2
20260507141540 68 41 8.0 0.0 0.00 0.00 0.00 61 1013.3
20260507140537 68 68 5.0 0.0 0.00 0.00 0.00 59 1013.3
20260507140037 68 56 9.0 0.0 0.00 0.00 0.00 61 1013.3
20260507135537 67 40 2.0 0.0 0.00 0.00 0.00 61 1013.3
20260507135036 67 25 7.0 0.0 0.00 0.00 0.00 60 1013.4
20260507134536 68 43 8.0 0.0 0.00 0.00 0.00 58 1013.4
20260507134036 68 41 6.0 0.0 0.00 0.00 0.00 58 1013.4
20260507133536 68 354 8.0 0.0 0.00 0.00 0.00 57 1013.3
20260507133036 68 33 10.0 0.0 0.00 0.00 0.00 56 1013.3
20260507132535 67 359 9.0 0.0 0.00 0.00 0.00 57 1013.3
20260507132035 68 4 8.0 0.0 0.00 0.00 0.00 59 1013.4
20260507131535 68 37 10.0 0.0 0.00 0.00 0.00 57 1013.4
20260507131035 68 26 2.0 0.0 0.00 0.00 0.00 59 1013.3
20260507130534 68 35 5.0 0.0 0.00 0.00 0.00 59 1013.3
20260507130034 68 340 5.0 0.0 0.00 0.00 0.00 61 1013.3
20260507125533 67 18 9.0 0.0 0.00 0.00 0.00 60 1013.2
20260507125032 67 44 7.0 0.0 0.00 0.00 0.00 59 1013.3
20260507124532 67 39 9.0 0.0 0.00 0.00 0.00 60 1013.4
20260507124032 68 21 13.0 0.0 0.00 0.00 0.00 59 1013.3
20260507123823 68 39 11.0 0.0 0.00 0.00 0.00 59 1013.4
20260507123532 68 39 11.0 0.0 0.00 0.00 0.00 59 1013.4
20260507123032 67 354 10.0 0.0 0.00 0.00 0.00 59 1013.4
20260507122531 67 14 11.0 0.0 0.00 0.00 0.00 57 1013.4
20260507122031 67 27 9.0 0.0 0.00 0.00 0.00 53 1013.4
20260507121531 68 8 10.0 0.0 0.00 0.00 0.00 55 1013.4
20260507121031 68 4 7.0 0.0 0.00 0.00 0.00 52 1013.5
20260507120530 68 342 10.0 0.0 0.00 0.00 0.00 53 1013.5
20260507120030 68 11 9.0 0.0 0.00 0.00 0.00 54 1013.5
20260507115530 68 48 4.0 0.0 0.00 0.00 0.00 56 1013.5
20260507115030 67 8 5.0 0.0 0.00 0.00 0.00 58 1013.5
20260507114529 68 348 8.0 0.0 0.00 0.00 0.00 57 1013.5
20260507114029 68 35 8.0 0.0 0.00 0.00 0.00 53 1013.6
20260507113529 68 58 8.0 0.0 0.00 0.00 0.00 56 1013.6
20260507113029 68 43 7.0 0.0 0.00 0.00 0.00 57 1013.6
20260507112528 68 39 5.0 0.0 0.00 0.00 0.00 57 1013.5
20260507112028 67 25 6.0 0.0 0.00 0.00 0.00 60 1013.6
20260507111528 67 21 7.0 0.0 0.00 0.00 0.00 60 1013.7
20260507111107 67 347 4.0 0.0 0.00 0.00 0.00 58 1013.7
20260507111028 67 347 4.0 0.0 0.00 0.00 0.00 58 1013.7
20260507110528 68 25 11.0 0.0 0.00 0.00 0.00 56 1013.7
20260507110027 68 4 4.0 0.0 0.00 0.00 0.00 55 1013.7
20260507105527 68 348 4.0 0.0 0.00 0.00 0.00 57 1013.8
20260507105111 68 13 0.0 0.0 0.00 0.00 0.00 60 1013.7
20260507105027 68 13 0.0 0.0 0.00 0.00 0.00 60 1013.7
20260507104527 68 333 8.0 0.0 0.00 0.00 0.00 60 1013.7
20260507104026 68 316 11.0 0.0 0.00 0.00 0.00 56 1013.7
20260507103526 69 52 3.0 0.0 0.00 0.00 0.00 57 1013.7
20260507103026 69 341 5.0 0.0 0.00 0.00 0.00 57 1013.7
20260507102526 69 316 6.0 0.0 0.00 0.00 0.00 55 1013.7
20260507102025 70 349 8.0 0.0 0.00 0.00 0.00 54 1013.7
20260507101525 70 354 2.0 0.0 0.00 0.00 0.00 53 1013.7
20260507101025 70 338 4.0 0.0 0.00 0.00 0.00 53 1013.7
20260507100525 70 343 7.0 0.0 0.00 0.00 0.00 52 1013.8
20260507100025 69 27 5.0 0.0 0.00 0.00 0.00 52 1013.8
20260507095524 70 31 3.0 0.0 0.00 0.00 0.00 53 1013.8
20260507095024 69 324 9.0 0.0 0.00 0.00 0.00 55 1013.8
20260507094524 69 328 3.0 0.0 0.00 0.00 0.00 55 1013.8
20260507094024 69 342 6.0 0.0 0.00 0.00 0.00 54 1013.7
20260507093523 69 344 0.0 0.0 0.00 0.00 0.00 54 1013.9
20260507093055 69 332 5.0 0.0 0.00 0.00 0.00 54 1013.7
20260507093023 69 332 5.0 0.0 0.00 0.00 0.00 54 1013.7
20260507092523 69 308 5.0 0.0 0.00 0.00 0.00 55 1013.7
20260507092023 69 317 0.0 0.0 0.00 0.00 0.00 56 1013.7
20260507091522 69 321 5.0 0.0 0.00 0.00 0.00 58 1013.7
20260507091022 68 16 0.0 0.0 0.00 0.00 0.00 59 1013.7
20260507090522 68 354 2.0 0.0 0.00 0.00 0.00 59 1013.7
20260507090022 68 4 0.0 0.0 0.00 0.00 0.00 59 1013.7
20260507085522 67 354 3.0 0.0 0.00 0.00 0.00 60 1013.7
20260507085021 67 359 5.0 0.0 0.00 0.00 0.00 59 1013.7
20260507084521 67 359 10.0 0.0 0.00 0.00 0.00 61 1013.6
20260507084021 68 354 7.0 0.0 0.00 0.00 0.00 63 1013.6
20260507083521 68 354 2.0 0.0 0.00 0.00 0.00 63 1013.5
20260507083020 68 34 8.0 0.0 0.00 0.00 0.00 63 1013.5
20260507082520 69 317 4.0 0.0 0.00 0.00 0.00 64 1013.4
20260507082020 69 9 0.0 0.0 0.00 0.00 0.00 65 1013.3
20260507081519 69 331 0.0 0.0 0.00 0.00 0.00 64 1013.2
20260507081018 70 319 9.0 0.0 0.00 0.00 0.00 59 1013.2
20260507080518 70 266 0.0 0.0 0.00 0.00 0.00 55 1013.1
20260507080017 69 242 0.0 0.0 0.00 0.00 0.00 55 1013.1
20260507075517 69 230 0.0 0.0 0.00 0.00 0.00 56 1013.1
20260507075017 69 243 0.0 0.0 0.00 0.00 0.00 58 1013.1
20260507074517 69 235 0.0 0.0 0.00 0.00 0.00 59 1013.1
20260507074016 69 228 0.0 0.0 0.00 0.00 0.00 60 1013.1
20260507073516 68 229 0.0 0.0 0.00 0.00 0.00 61 1013.1
20260507073016 67 179 0.0 0.0 0.00 0.00 0.00 61 1013.2
20260507072516 67 182 0.0 0.0 0.00 0.00 0.00 62 1013.1
20260507072016 67 180 0.0 0.0 0.00 0.00 0.00 63 1013.1
20260507071515 67 75 0.0 0.0 0.00 0.00 0.00 64 1013.2
20260507071015 67 60 0.0 0.0 0.00 0.00 0.00 66 1013.2
20260507070515 67 60 0.0 0.0 0.00 0.00 0.00 66 1013.2
20260507070015 67 60 0.0 0.0 0.00 0.00 0.00 67 1013.2
20260507065514 66 54 0.0 0.0 0.00 0.00 0.00 69 1013.1
20260507065014 67 54 0.0 0.0 0.00 0.00 0.00 70 1013.1
20260507064514 66 54 0.0 0.0 0.00 0.00 0.00 71 1013.1
20260507064014 65 54 0.0 0.0 0.00 0.00 0.00 72 1013.1
20260507063513 65 54 0.0 0.0 0.00 0.00 0.00 73 1013.2
20260507063013 65 54 0.0 0.0 0.00 0.00 0.00 74 1013.2
20260507062513 65 45 0.0 0.0 0.00 0.00 0.00 75 1013.1
20260507062013 64 43 0.0 0.0 0.00 0.00 0.00 75 1013.1
20260507061513 64 42 0.0 0.0 0.00 0.00 0.00 75 1013.1
20260507061012 63 40 0.0 0.0 0.00 0.00 0.00 75 1013.1
20260507060512 63 40 0.0 0.0 0.00 0.00 0.00 75 1013.1
20260507060012 63 354 0.0 0.0 0.00 0.00 0.00 75 1013.1
20260507055512 62 354 0.0 0.0 0.00 0.00 0.00 74 1013.0
20260507055011 62 338 0.0 0.0 0.00 0.00 0.00 75 1013.0
20260507054511 61 156 0.0 0.0 0.00 0.00 0.00 75 1012.8
20260507054011 61 152 0.0 0.0 0.00 0.00 0.00 75 1012.8
20260507053511 61 131 0.0 0.0 0.00 0.00 0.00 75 1012.7
20260507053011 61 129 0.0 0.0 0.00 0.00 0.00 75 1012.7
20260507052510 61 129 0.0 0.0 0.00 0.00 0.00 75 1012.7
20260507052010 61 129 0.0 0.0 0.00 0.00 0.00 75 1012.6
20260507051510 61 129 0.0 0.0 0.00 0.00 0.00 75 1012.6
20260507051010 61 129 0.0 0.0 0.00 0.00 0.00 75 1012.7
20260507050509 61 129 0.0 0.0 0.00 0.00 0.00 75 1012.6
20260507050009 61 129 0.0 0.0 0.00 0.00 0.00 75 1012.6
20260507045509 62 129 0.0 0.0 0.00 0.00 0.00 75 1012.5
20260507045009 62 129 0.0 0.0 0.00 0.00 0.00 75 1012.4
20260507044508 62 129 0.0 0.0 0.00 0.00 0.00 75 1012.2
20260507044008 62 129 0.0 0.0 0.00 0.00 0.00 75 1012.2
20260507043508 62 129 0.0 0.0 0.00 0.00 0.00 75 1012.1
20260507043008 61 129 0.0 0.0 0.00 0.00 0.00 75 1012.1
20260507042507 61 129 0.0 0.0 0.00 0.00 0.00 75 1012.1
20260507042007 61 129 0.0 0.0 0.00 0.00 0.00 75 1012.2
20260507041507 61 129 0.0 0.0 0.00 0.00 0.00 75 1012.1
20260507041007 61 129 0.0 0.0 0.00 0.00 0.00 75 1012.1
20260507040507 61 124 0.0 0.0 0.00 0.00 0.00 75 1012.0
20260507040006 61 105 0.0 0.0 0.00 0.00 0.00 75 1011.9
20260507035506 61 102 0.0 0.0 0.00 0.00 0.00 75 1011.9
20260507035006 61 101 0.0 0.0 0.00 0.00 0.00 75 1011.8
20260507034506 61 116 0.0 0.0 0.00 0.00 0.00 75 1011.9
20260507034005 61 115 0.0 0.0 0.00 0.00 0.00 75 1011.9
20260507033505 61 115 0.0 0.0 0.00 0.00 0.00 76 1011.9
20260507033005 61 129 0.0 0.0 0.00 0.00 0.00 76 1011.8
20260507032505 61 129 0.0 0.0 0.00 0.00 0.00 76 1011.8
20260507032004 61 129 0.0 0.0 0.00 0.00 0.00 76 1011.8
20260507031736 61 129 0.0 0.0 0.00 0.00 0.00 76 1011.8
20260507031504 61 129 0.0 0.0 0.00 0.00 0.00 76 1011.8
20260507031004 61 130 0.0 0.0 0.00 0.00 0.00 76 1011.9
20260507030504 61 330 0.0 0.0 0.00 0.00 0.00 76 1011.8
20260507030004 62 330 0.0 0.0 0.00 0.00 0.00 75 1011.8
20260507025503 62 330 0.0 0.0 0.00 0.00 0.00 75 1011.8
20260507025003 62 330 0.0 0.0 0.00 0.00 0.00 75 1011.8
20260507024734 61 330 0.0 0.0 0.00 0.00 0.00 75 1011.8
20260507024503 61 330 0.0 0.0 0.00 0.00 0.00 75 1011.8
20260507024003 62 330 0.0 0.0 0.00 0.00 0.00 75 1011.8
20260507023502 62 330 0.0 0.0 0.00 0.00 0.00 75 1011.6
20260507023002 62 330 0.0 0.0 0.00 0.00 0.00 75 1011.6
20260507022502 62 330 0.0 0.0 0.00 0.00 0.00 75 1011.7
20260507022002 62 330 0.0 0.0 0.00 0.00 0.00 75 1011.8
20260507021501 62 330 0.0 0.0 0.00 0.00 0.00 75 1011.7
20260507021218 62 330 0.0 0.0 0.00 0.00 0.00 75 1011.8
20260507021001 62 330 0.0 0.0 0.00 0.00 0.00 75 1011.8
20260507020501 62 330 0.0 0.0 0.00 0.00 0.00 75 1011.8
20260507020001 62 330 0.0 0.0 0.00 0.00 0.00 75 1011.8
20260507015501 62 330 0.0 0.0 0.00 0.00 0.00 75 1011.7
20260507015000 62 330 0.0 0.0 0.00 0.00 0.00 75 1011.7
20260507014501 62 330 0.0 0.0 0.00 0.00 0.00 75 1011.7
20260507014000 63 330 0.0 0.0 0.00 0.00 0.00 75 1011.7
20260507013500 63 330 0.0 0.0 0.00 0.00 0.00 75 1011.7
20260507012959 63 330 0.0 0.0 0.00 0.00 0.00 75 1011.7
20260507012459 63 329 0.0 0.0 0.00 0.00 0.00 75 1011.7
20260507011959 63 329 0.0 0.0 0.00 0.00 0.00 75 1011.7
20260507011459 63 329 0.0 0.0 0.00 0.00 0.00 75 1011.7
20260507010959 63 329 0.0 0.0 0.00 0.00 0.00 74 1011.7
20260507010458 63 329 0.0 0.0 0.00 0.00 0.00 74 1011.7
20260507005958 64 328 0.0 0.0 0.00 0.00 0.00 74 1011.8
20260507005458 64 325 0.0 0.0 0.00 0.00 0.00 74 1011.7
20260507004958 64 33 0.0 0.0 0.00 0.00 0.00 74 1011.8
20260507004457 64 33 0.0 0.0 0.00 0.00 0.00 73 1011.8
20260507003957 64 33 0.0 0.0 0.00 0.00 0.00 73 1011.8
20260507003457 64 33 0.0 0.0 0.00 0.00 0.00 73 1011.7
20260507002957 64 280 0.0 0.0 0.00 0.00 0.00 72 1011.8
20260507002456 64 281 0.0 0.0 0.00 0.00 0.00 71 1011.8
20260507001956 64 280 0.0 0.0 0.00 0.00 0.00 71 1011.8
20260507001456 65 280 0.0 0.0 0.00 0.00 0.00 71 1011.8
20260507000956 65 280 0.0 0.0 0.00 0.00 0.00 70 1011.9
20260507000455 65 281 0.0 0.0 0.00 0.00 0.00 70 1011.9
20260506235955 66 281 0.0 0.0 0.00 0.00 0.00 69 1011.9
20260506235455 66 280 0.0 0.0 0.00 0.00 0.00 68 1011.9
20260506234955 66 237 0.0 0.0 0.00 0.00 0.00 68 1011.8
20260506234455 66 237 0.0 0.0 0.00 0.00 0.00 67 1011.7
20260506233954 66 144 0.0 0.0 0.00 0.00 0.00 67 1011.7
20260506233454 66 143 0.0 0.0 0.00 0.00 0.00 67 1011.7
20260506232954 66 187 0.0 0.0 0.00 0.00 0.00 67 1011.7
20260506232454 66 223 3.0 0.0 0.00 0.00 0.00 66 1011.7
20260506231953 67 245 0.0 0.0 0.00 0.00 0.00 65 1011.7
20260506230953 67 166 0.0 0.0 0.00 0.00 0.00 64 1011.5
20260506230453 67 184 2.0 0.0 0.00 0.00 0.00 64 1011.5
20260506225952 67 139 6.0 0.0 0.00 0.00 0.00 64 1011.6
20260506225452 67 187 7.0 0.0 0.00 0.00 0.00 65 1011.5
20260506224952 67 133 2.0 0.0 0.00 0.00 0.00 65 1011.5
20260506224452 67 157 2.0 0.0 0.00 0.00 0.00 66 1011.5
20260506223952 66 150 3.0 0.0 0.00 0.00 0.00 66 1011.5
20260506223451 66 155 2.0 0.0 0.00 0.00 0.00 67 1011.4
20260506222951 66 140 5.0 0.0 0.00 0.00 0.00 68 1011.5
20260506222451 66 152 5.0 0.0 0.00 0.00 0.00 69 1011.6
20260506221951 66 141 2.0 0.0 0.00 0.00 0.00 70 1011.6
20260506221451 65 145 3.0 0.0 0.00 0.00 0.00 70 1011.7
20260506220950 65 150 0.0 0.0 0.00 0.00 0.00 71 1011.7
20260506220450 65 139 0.0 0.0 0.00 0.00 0.00 71 1011.7
20260506215950 65 139 0.0 0.0 0.00 0.00 0.00 71 1011.7
20260506215450 65 139 0.0 0.0 0.00 0.00 0.00 71 1011.8
20260506214949 65 139 0.0 0.0 0.00 0.00 0.00 71 1011.7
20260506214449 65 143 0.0 0.0 0.00 0.00 0.00 71 1011.8
20260506213949 65 143 0.0 0.0 0.00 0.00 0.00 71 1011.9
20260506213449 65 129 0.0 0.0 0.00 0.00 0.00 72 1011.8
20260506212948 65 109 0.0 0.0 0.00 0.00 0.00 72 1011.8
20260506212448 65 104 0.0 0.0 0.00 0.00 0.00 73 1011.7
20260506211948 65 92 0.0 0.0 0.00 0.00 0.00 73 1011.7
20260506211448 65 46 0.0 0.0 0.00 0.00 0.00 73 1011.8
20260506210948 65 46 0.0 0.0 0.00 0.00 0.00 73 1011.8
20260506210447 65 45 0.0 0.0 0.00 0.00 0.00 73 1011.8
20260506205947 65 46 0.0 0.0 0.00 0.00 0.00 73 1011.8
20260506205447 65 46 0.0 0.0 0.00 0.00 0.00 73 1011.8
20260506204947 65 45 0.0 0.0 0.00 0.00 0.00 73 1011.8
20260506204446 65 45 0.0 0.0 0.00 0.00 0.00 73 1011.8
20260506203946 65 45 0.0 0.0 0.00 0.00 0.00 73 1011.7
20260506202946 65 45 0.0 0.0 0.00 0.00 0.00 73 1011.7
20260506202445 65 33 0.0 0.0 0.00 0.00 0.00 73 1011.5
20260506201945 65 354 0.0 0.0 0.00 0.00 0.00 73 1011.5
20260506201445 65 346 0.0 0.0 0.00 0.00 0.00 73 1011.5
20260506200945 65 346 0.0 0.0 0.00 0.00 0.00 73 1011.5
20260506200445 65 346 0.0 0.0 0.00 0.00 0.00 73 1011.6
20260506195944 65 346 0.0 0.0 0.00 0.00 0.00 73 1011.6
20260506195444 65 346 0.0 0.0 0.00 0.00 0.00 73 1011.5
20260506194944 65 343 0.0 0.0 0.00 0.00 0.00 72 1011.5